SENTINEL-5P

Last updated on Thu Jul 03 2025 00:02:30 GMT+0000 (Coordinated Universal Time)

1 42969U 17064A 25183.59313982 .00000040 00000+0 40032-4 0 9993 2 42969 98.7583 123.8314 0001215 93.9215 266.2100 14.19530242399966
UTC large
Height (km)
Speed (km/s)
/
Latitude / Longitude
Inclination (degrees)
Orbital Period (minutes)
Azimuth
Elevation
Range (km)
Doppler Factor

Next 0 passes for location: London (51.5072 / 0.1276)

Sorry there are no passes over London.